Overview Statistics Trail Chart Weather Telemetry Raw packets
 

This is the latest recevied weather packets stored in our database for station/object KD2FKI. If no packets are shown the sender has not sent any weather packets the latest 10 day(s).

<< 33 34 35 36 37 38 39 >>
Time Temp. Humidity Pressure Rain* Wind** Luminosity Snow
1777695121 12.78° C 75% - 0 mm - - -
1777694436 12.78° C 73% - 0 mm - - -
1777693844 12.78° C 72% - 0 mm - - -
1777693234 12.78° C 74% - 0 mm - - -
1777692660 13.33° C 74% - 0 mm - - -
1777692032 14.44° C 69% - 0 mm - - -
1777691439 15° C 64% - 0 mm - - -
1777690830 15° C 65% - 0 mm - - -
1777690237 15° C 63% - 0 mm - - -
1777689649 15.56° C 56% - 0 mm - - -
1777689034 15.56° C 55% - 0 mm - - -
1777688443 15.56° C 55% - 0 mm - - -
1777687838 15.56° C 55% - 0 mm - - -
1777687240 15.56° C 54% - 0 mm - - -
1777686630 16.11° C 53% - 0 mm - - -
1777686041 16.11° C 53% - 0 mm - - -
1777685445 16.11° C 52% - 0 mm - - -
1777684836 16.67° C 51% - 0 mm - - -
1777684244 16.67° C 49% - 0 mm - - -
1777683653 16.67° C 48% - 0 mm - - -
1777683080 17.22° C 46% - 0 mm - - -
1777682434 17.22° C 43% - 0 mm - - -
1777681856 17.78° C 42% - 0 mm - - -
1777681248 17.78° C 42% - 0 mm - - -
1777680636 17.78° C 41% - 0 mm - - -

* Rain latest hour (hover to see other rain measurements)
** Current wind speed in m/s (hover to see current wind gust speed)